RH
56 60 60 61 63 64 64 65 68 70 72 74 76 81 76 77 77 75 76 85 82 96 93 92 97 98 97 95 91 92 91 90
58 59 60 62 65 67 67 70 73 71 76 78 77 80 77 78 73 72 75 83 82 77 88 95 95 96 87 96 96 97 98 96
60 65 67 70 71 70 70 70 71 72 74 80 87 80 88 77 79 75 75 78 82 80 86 87 92 95 96 97 93 92 95 98
62 68 75 74 75 74 73 72 72 72 76 75 77 79 81 83 79 79 77 75 78 83 84 86 87 91 94 94 96 91 84 99
61 68 75 75 77 73 72 68 70 69 74 79 85 88 89 81 82 79 78 77 80 83 86 87 88 89 91 93 97 96 95 94
64 67 72 72 73 76 70 71 70 70 74 78 84 86 84 81 78 78 77 78 80 84 87 89 89 86 86 91 98 98 92 94
61 62 66 72 72 71 70 72 74 72 74 79 76 78 81 83 80 82 81 80 80 80 81 90 90 89 89 90 96 94 94 90
66 68 71 73 74 71 68 76 77 78 80 81 75 75 78 83 82 84 84 87 88 88 87 89 91 90 88 88 97 96 94 93
67 68 68 69 72 73 75 76 81 78 80 80 76 76 81 81 82 83 84 86 85 85 88 88 90 90 89 88 92 96 95 95
74 73 70 68 72 78 78 79 80 81 84 84 81 81 84 86 84 84 84 84 79 84 88 90 90 92 91 88 94 95 95 92
76 73 70 70 71 73 77 78 82 80 82 81 80 81 83 84 85 87 86 86 87 88 88 88 90 91 93 90 89 89 91 90
69 73 72 72 70 73 78 80 84 83 80 81 81 81 81 83 85 85 86 87 86 87 86 89 90 92 94 92 86 88 92 92
69 70 71 72 72 72 76 84 86 86 81 80 81 79 79 82 84 84 85 86 84 85 85 86 87 88 91 94 90 84 94 95
72 70 74 72 75 76 80 86 87 85 82 80 84 83 82 82 82 83 82 83 83 83 84 86 87 88 88 93 95 93 93 92
69 73 69 74 77 79 82 88 86 86 83 85 89 84 85 82 83 82 83 82 83 83 84 85 88 87 87 90 91 97 95 91
70 74 73 78 78 83 82 84 85 83 86 89 92 90 86 86 89 90 84 83 82 83 85 85 89 88 89 94 94 97 98 93
75 75 74 77 78 81 80 82 86 83 84 90 86 86 86 91 92 91 89 86 86 86 87 88 90 86 96 94 93 94 96 96
84 86 86 89 94 95 92 85 85 87 88 88 88 91 93 94 94 91 95 96 90 91 93 94 91 91 93 96 94 93 93 95
88 92 94 97 99 97 93 90 90 84 87 89 88 88 93 95 94 95 95 97 97 96 96 96 96 97 97 92 94 97 95 96
Wind_Speed
13 14 13 13 13 13 14 12 14 13 9 7 5 5 7 6 6 6 8 5 8 9 8 8 8 7 7 7 10 9 8 9
11 13 14 15 15 16 15 16 14 11 9 10 7 7 8 7 7 9 9 8 9 9 8 7 5 7 12 11 8 6 6 7
12 14 16 16 15 14 15 14 12 10 7 5 4 7 4 7 6 9 10 9 9 9 8 10 10 8 8 7 12 8 8 7
13 14 15 14 16 13 13 12 10 10 9 6 5 5 4 5 8 9 10 12 11 9 10 8 10 10 11 10 10 13 12 2
14 14 16 14 13 13 13 11 11 11 10 8 8 5 7 6 8 8 11 13 13 11 10 10 9 8 12 11 8 9 5 8
12 17 17 14 12 12 10 9 14 12 9 8 6 9 8 8 8 11 10 11 11 12 11 11 11 9 11 13 7 8 8 7
17 16 15 13 11 11 10 10 15 12 11 9 10 12 13 11 10 10 8 8 11 13 14 11 11 12 12 12 11 13 12 10
16 16 14 13 13 14 11 14 13 11 10 10 11 11 12 13 13 10 14 10 9 12 13 13 11 13 14 12 11 12 12 11
15 16 12 12 15 16 13 11 10 13 11 11 10 12 8 9 11 11 10 10 10 15 14 14 16 16 15 14 11 11 12 13
15 15 13 14 14 12 10 12 12 12 13 11 12 11 12 11 14 12 10 13 12 15 16 17 17 16 15 15 10 12 13 15
13 12 15 13 10 8 11 11 11 11 11 11 11 13 12 12 11 13 14 14 15 17 17 17 17 18 15 14 12 12 13 12
11 11 10 10 9 10 11 13 13 13 15 14 15 14 14 12 12 13 14 15 16 15 17 18 16 18 15 13 14 13 12 11
13 14 13 12 12 11 12 12 11 12 12 12 14 14 14 14 13 14 15 16 15 16 16 17 15 16 18 13 15 13 11 14
11 12 12 12 11 11 11 10 11 12 12 13 13 14 15 16 16 14 15 16 15 16 16 16 17 16 16 16 9 7 9 13
9 9 10 9 10 10 10 11 12 11 11 11 13 15 14 15 14 16 16 15 16 16 16 16 16 16 16 17 14 4 5 13
10 10 9 10 10 9 10 13 11 12 11 12 13 13 13 14 14 13 14 15 15 16 16 16 17 13 13 17 12 9 9 16
10 12 12 11 12 11 12 12 11 12 13 13 14 14 13 13 14 16 15 16 16 16 17 17 18 14 24 26 13 13 16 17
8 9 10 10 9 10 10 11 10 11 12 13 14 13 13 14 14 14 15 16 16 17 17 16 19 19 30 27 22 15 16 17
6 6 7 7 6 7 6 8 10 13 14 14 14 14 13 13 13 14 15 13 14 14 16 17 17 20 32 31 24 16 16 19
Wind_Direction
122 112 99 92 83 76 66 59 47 37 28 6 9 12 358 349 345 342 339 329 329 298 264 236 204 203 218 217 213 202 198 206
109 99 92 86 72 65 56 54 44 38 22 10 352 356 333 342 336 338 338 337 335 321 305 281 247 226 220 207 212 211 220 179
101 87 82 76 74 65 56 51 48 43 33 15 359 328 320 323 327 333 331 341 334 328 328 312 281 255 237 218 217 217 219 192
82 69 70 67 64 60 64 54 43 41 34 15 352 325 325 327 338 326 329 325 320 313 305 299 308 292 256 235 218 229 230 166
98 84 70 63 57 54 41 48 45 39 23 20 0 344 328 322 308 309 312 313 310 305 296 291 278 283 276 246 225 218 169 182
83 90 78 66 55 60 37 41 46 27 15 12 359 338 320 312 313 307 309 306 300 300 295 287 282 276 277 251 204 179 194 169
85 72 74 68 60 60 39 29 41 18 13 2 359 341 326 321 326 318 318 312 310 300 299 287 281 277 272 263 214 200 197 207
80 72 62 56 50 44 24 28 28 11 12 4 356 341 329 323 324 325 320 313 310 302 300 291 284 281 276 267 212 204 209 206
71 70 59 54 52 42 22 10 21 12 5 360 347 348 336 332 325 319 308 305 307 305 298 296 290 271 269 264 237 206 193 207
72 67 55 43 48 40 12 13 14 10 0 357 352 344 342 332 328 320 316 312 314 309 310 300 290 271 257 258 242 218 206 211
57 53 47 39 31 31 15 15 12 2 1 1 352 350 344 335 333 329 323 324 321 323 317 307 300 294 249 245 246 234 219 219
67 62 55 41 25 30 18 11 4 8 7 1 356 354 349 344 344 338 335 329 333 327 322 315 314 307 251 228 231 226 218 217
38 32 30 27 21 21 21 6 1 7 7 3 358 357 359 357 353 347 346 341 337 334 332 328 327 331 323 238 227 219 211 212
43 28 25 15 12 14 15 2 3 5 3 8 4 5 5 5 360 356 358 350 346 346 344 341 340 344 340 334 283 231 220 218
48 36 29 20 14 17 9 2 8 3 7 7 7 10 5 9 1 6 5 360 357 354 354 348 346 349 349 334 317 289 277 232
45 36 30 23 20 15 15 18 8 9 8 13 11 1 5 4 2 5 7 8 8 4 357 354 357 358 354 341 307 332 339 263
41 38 36 33 29 26 23 19 11 16 19 15 13 9 5 3 11 15 8 7 9 8 7 5 5 4 355 9 6 42 40 358
41 42 34 27 19 19 21 19 14 21 22 16 14 6 6 7 9 9 11 12 10 7 3 4 15 12 11 13 23 47 50 33
52 37 25 17 8 8 9 19 30 32 29 21 15 11 9 5 8 17 13 11 10 7 10 8 15 19 18 16 17 36 48 43